Kaltag, AK

8:19 AM AKDT on April 30, 2017 (GMT -0800)
Kaltag

Weather History for PAKV - November, 2013

Change the Weather History Date:

Saturday, November 23, 2013

  Actual Average (PAGA) Record (PAGA)
Temperature  
Mean Temperature 1 °F -  
Max Temperature 10 °F 5 °F 44 °F (1952)
Min Temperature -8 °F -5 °F -42 °F (1974)
Degree Days  
Heating Degree Days 64    
Moisture  
Dew Point 1 °F    
Average Humidity 85    
Maximum Humidity 88    
Minimum Humidity 79    
Precipitation  
Precipitation 0.01 in - - ()
Sea Level Pressure  
Sea Level Pressure 29.61 in    
Wind  
Wind Speed 1 mph (ENE)    
Max Wind Speed 7 mph    
Max Gust Speed -    
Visibility 5 miles    
Events Snow    
Averages and records for this station are not official NWS values.
T = Trace of Precipitation, MM = Missing Value Source: NWS Daily Summary

Daily Weather History Graph

Daily Weather History Graph

Search for Another Location

Airport or City:

Trip Planner

Search our weather history database for the weather conditions in past years. The results will help you decide how hot, cold, wet, or windy it might be!

Date:

Astronomy

Nov. 23, 2013 Rise Set
Actual Time 10:32 AM AKST 4:09 PM AKST
Civil Twilight 9:26 AM AKST 5:15 PM AKST
Nautical Twilight 8:22 AM AKST 6:19 PM AKST
Astronomical Twilight 7:24 AM AKST 7:17 PM AKST
Moon 10:51 PM AKST (11/23) 1:59 PM AKST (11/23)
Length of Visible Light 7h 49m
Length of Day
5h 36m
Waning Gibbous, 68% of the Moon is Illuminated
Nov 23
Waning Gibbous
Nov 25
Last Quarter
Dec 2
New
Dec 9
First Quarter
Dec 17
Full

Hourly Weather History & Observations

Time (AKST) Temp. Windchill Dew Point Humidity Pressure Visibility Wind Dir Wind Speed Gust Speed Precip Events Conditions
12:53 AM 3.9 °F - 1.0 °F 88% 29.44 in 3.0 mi Calm Calm - 0.00 in Snow Light Snow
1:53 AM 3.0 °F - -0.0 °F 87% 29.44 in 10.0 mi Calm Calm - 0.00 in   Overcast
2:43 AM 3.0 °F - -0.0 °F 87% 29.44 in 10.0 mi Calm Calm - N/A   Mostly Cloudy
3:01 AM 1.9 °F - -0.9 °F 88% 29.44 in 2.5 mi Calm Calm - 0.00 in Snow Light Snow
3:11 AM 1.9 °F - -0.9 °F 88% 29.44 in 1.5 mi Calm Calm - 0.00 in Snow Light Snow
3:30 AM 1.9 °F - -0.9 °F 88% 29.45 in 3.0 mi Calm Calm - 0.00 in Snow Light Snow
3:53 AM 3.0 °F - -0.9 °F 84% 29.46 in 8.0 mi Calm Calm - 0.00 in   Overcast
4:53 AM 3.9 °F - 1.0 °F 88% 29.47 in 4.0 mi Calm Calm - 0.00 in Snow Light Snow
5:09 AM 3.9 °F - 1.0 °F 88% 29.46 in 2.5 mi Calm Calm - 0.00 in Snow Light Snow
5:40 AM 5.0 °F - 1.9 °F 87% 29.48 in 3.0 mi Calm Calm - 0.00 in Snow Light Snow
5:53 AM 6.1 °F - 1.9 °F 83% 29.50 in 5.0 mi Calm Calm - 0.00 in Snow Light Snow
6:34 AM 3.9 °F - 1.0 °F 88% 29.49 in 1.8 mi Calm Calm - 0.00 in Snow Light Snow
6:46 AM 3.9 °F - 1.0 °F 88% 29.49 in 3.0 mi Calm Calm - 0.00 in Snow Light Snow
6:53 AM 3.9 °F - 1.0 °F 88% 29.50 in 4.0 mi Calm Calm - 0.00 in Snow Light Snow
7:53 AM -0.0 °F - -5.1 °F 79% 29.51 in 10.0 mi Calm Calm - 0.00 in   Mostly Cloudy
8:04 AM -4.0 °F - -7.1 °F 87% 29.50 in 10.0 mi Calm Calm - N/A   Scattered Clouds
8:53 AM -8.0 °F - -11.9 °F 83% 29.53 in 10.0 mi Calm Calm - N/A   Partly Cloudy
9:53 AM 1.9 °F - -2.0 °F 83% 29.55 in 10.0 mi Calm Calm - N/A   Overcast
10:53 AM 3.0 °F - -0.0 °F 87% 29.57 in 8.0 mi Calm Calm - 0.00 in Snow Light Snow
11:53 AM 3.9 °F - 1.0 °F 88% 29.59 in 9.0 mi Calm Calm - 0.00 in   Overcast
12:53 PM 6.1 °F -0.9 °F 1.9 °F 83% 29.60 in 10.0 mi WSW 3.5 mph - 0.00 in   Overcast
1:53 PM 9.0 °F - 5.0 °F 84% 29.63 in 5.0 mi Calm Calm - 0.00 in Snow Light Snow
2:53 PM 10.9 °F 2.9 °F 6.1 °F 81% 29.65 in 2.5 mi NE 4.6 mph - 0.00 in Snow Light Snow
3:02 PM 10.9 °F 2.9 °F 6.1 °F 81% 29.63 in 3.0 mi NE 4.6 mph - 0.00 in Snow Light Snow
3:26 PM 10.9 °F 1.4 °F 6.1 °F 81% 29.63 in 2.5 mi ENE 5.8 mph - 0.00 in Snow Light Snow
3:33 PM 10.9 °F 0.2 °F 6.1 °F 81% 29.64 in 3.0 mi ENE 6.9 mph - 0.00 in Snow Light Snow
3:43 PM 10.9 °F 1.4 °F 6.1 °F 81% 29.64 in 2.5 mi ENE 5.8 mph - 0.00 in Snow Light Snow
3:53 PM 10.9 °F 4.7 °F 6.1 °F 81% 29.66 in 2.5 mi Variable 3.5 mph - 0.00 in Snow Light Snow
4:13 PM 10.0 °F 3.6 °F 6.1 °F 84% 29.66 in 1.8 mi East 3.5 mph - 0.00 in Snow Light Snow
4:20 PM 10.9 °F 2.9 °F 6.1 °F 81% 29.66 in 3.0 mi ENE 4.6 mph - 0.00 in Snow Light Snow
4:53 PM 10.9 °F - 7.0 °F 84% 29.69 in 4.0 mi Calm Calm - 0.00 in Snow Light Snow
5:53 PM 10.0 °F - 7.0 °F 87% 29.73 in 4.0 mi Calm Calm - 0.00 in Snow Light Snow
6:17 PM 10.0 °F - 6.1 °F 84% 29.73 in 2.5 mi Calm Calm - 0.00 in Snow Light Snow
6:45 PM 9.0 °F - 6.1 °F 88% 29.74 in 3.0 mi Calm Calm - 0.00 in Snow Light Snow
6:53 PM 9.0 °F - 5.0 °F 84% 29.76 in 1.8 mi Calm Calm - 0.00 in Snow Light Snow
7:11 PM 8.1 °F - 5.0 °F 87% 29.75 in 3.0 mi Calm Calm - 0.00 in Snow Light Snow
7:53 PM 1.0 °F - -2.9 °F 83% 29.79 in 10.0 mi Calm Calm - 0.01 in   Overcast
8:53 PM -0.9 °F - -5.1 °F 83% 29.83 in 7.0 mi Calm Calm - 0.00 in Snow Light Snow
9:53 PM -0.0 °F - -4.0 °F 83% 29.86 in 6.0 mi Calm Calm - 0.00 in Snow Light Snow
10:53 PM -0.0 °F - -4.0 °F 83% 29.89 in 9.0 mi Calm Calm - 0.00 in   Overcast
11:49 PM -5.8 °F - -9.4 °F 84% 29.90 in 10.0 mi Calm Calm - N/A   Scattered Clouds
11:53 PM -8.0 °F - -11.9 °F 83% 29.92 in 10.0 mi Calm Calm - N/A   Partly Cloudy